FW9300 Weather Reports


Display with metric or nautical units.
time (UTC)temp
F
wind
direction
speed
MPH
gust
MPH
rain 1hr
in
rain 24hr
in
rain mn
in
humidity
%
barometer
mb
20260906233017 88 0.0 0.0 0.00 0.00 0.00 17 1015.5
20260906231517 88 0.0 0.0 0.00 0.00 0.00 17 1015.6
20260906230037 90 0.0 0.0 0.00 0.00 0.00 16 1015.0
20260906224517 90 0.0 0.0 0.00 0.00 0.00 16 1015.3
20260906223017 90 0.0 0.0 0.00 0.00 0.00 16 1015.8
20260906221517 90 0.0 0.0 0.00 0.00 0.00 16 1015.7
20260906220017 90 0.0 0.0 0.00 0.00 0.00 16 1015.7
20260906214517 90 0.0 0.0 0.00 0.00 0.00 16 1015.9
20260906213017 89 0.0 0.0 0.00 0.00 0.00 16 1016.8
20260906211517 90 0.0 0.0 0.00 0.00 0.00 16 1017.0
20260906210017 89 0.0 0.0 0.00 0.00 0.00 16 1017.4
20260906204517 88 0.0 0.0 0.00 0.00 0.00 17 1017.8
20260906203017 88 0.0 0.0 0.00 0.00 0.00 17 1017.7
20260906201517 88 0.0 0.0 0.00 0.00 0.00 17 1018.0
20260906200016 87 0.0 0.0 0.00 0.00 0.00 18 1016.5
20260906194517 88 0.0 0.0 0.00 0.00 0.00 18 1017.0
20260906193017 88 0.0 0.0 0.00 0.00 0.00 18 1017.4
20260906191516 87 0.0 0.0 0.00 0.00 0.00 19 1017.5
20260906190017 86 0.0 0.0 0.00 0.00 0.00 19 1019.4
20260906184537 84 0.0 0.0 0.00 0.00 0.00 20 1019.7
20260906183057 83 0.0 0.0 0.00 0.00 0.00 20 1019.6
20260906181516 82 0.0 0.0 0.00 0.00 0.00 22 1020.1
20260906180016 84 0.0 0.0 0.00 0.00 0.00 20 1019.1
20260906174516 83 0.0 0.0 0.00 0.00 0.00 23 1018.7
20260906173016 82 0.0 0.0 0.00 0.00 0.00 25 1019.7
20260906171516 82 0.0 0.0 0.00 0.00 0.00 25 1019.9
20260906170016 81 0.0 0.0 0.00 0.00 0.00 26 1020.1
20260906164516 81 0.0 0.0 0.00 0.00 0.00 27 1020.2
20260906163016 78 0.0 0.0 0.00 0.00 0.00 28 1020.2
20260906161517 77 0.0 0.0 0.00 0.00 0.00 29 1020.5
20260906160016 76 0.0 0.0 0.00 0.00 0.00 29 1020.4
20260906154516 77 0.0 0.0 0.00 0.00 0.00 30 1020.2
20260906153036 75 0.0 0.0 0.00 0.00 0.00 30 1020.0
20260906151516 72 0.0 0.0 0.00 0.00 0.00 39 1020.2
20260906150036 69 0.0 0.0 0.00 0.00 0.00 47 1020.1
20260906144516 67 0.0 0.0 0.00 0.00 0.00 48 1020.1
20260906143036 66 0.0 0.0 0.00 0.00 0.00 48 1020.4
20260906141516 66 0.0 0.0 0.00 0.00 0.00 48 1020.2
20260906140016 66 0.0 0.0 0.00 0.00 0.00 47 1020.7
20260906134516 66 0.0 0.0 0.00 0.00 0.00 45 1020.4
20260906133017 66 0.0 0.0 0.00 0.00 0.00 44 1020.7
20260906131516 66 0.0 0.0 0.00 0.00 0.00 44 1020.7
20260906130015 66 0.0 0.0 0.00 0.00 0.00 42 1020.1
20260906124535 67 0.0 0.0 0.00 0.00 0.00 41 1019.4
20260906123036 68 0.0 0.0 0.00 0.00 0.00 40 1019.5
20260906121535 68 0.0 0.0 0.00 0.00 0.00 40 1019.7
20260906120035 67 0.0 0.0 0.00 0.00 0.00 41 1019.1
20260906114515 66 0.0 0.0 0.00 0.00 0.00 44 1018.8
20260906113015 65 0.0 0.0 0.00 0.00 0.00 44 1018.9
20260906111516 66 0.0 0.0 0.00 0.00 0.00 43 1018.8
20260906110015 66 0.0 0.0 0.00 0.00 0.00 44 1018.4
20260906104516 66 0.0 0.0 0.00 0.00 0.00 43 1018.4
20260906103036 66 0.0 0.0 0.00 0.00 0.00 42 1018.8
20260906101518 67 0.0 0.0 0.00 0.00 0.00 42 1018.8
20260906100017 67 0.0 0.0 0.00 0.00 0.00 41 1018.6
20260906094517 67 0.0 0.0 0.00 0.00 0.00 40 1018.5
20260906093017 67 0.0 0.0 0.00 0.00 0.00 40 1018.3
20260906091517 68 0.0 0.0 0.00 0.00 0.00 38 1018.2
20260906090037 69 0.0 0.0 0.00 0.00 0.00 36 1018.6
20260906084517 71 0.0 0.0 0.00 0.00 0.00 34 1018.5
20260906083017 72 0.0 0.0 0.00 0.00 0.00 31 1018.2
20260906081517 72 0.0 0.0 0.00 0.00 0.00 31 1018.4
20260906080017 71 0.0 0.0 0.00 0.00 0.00 33 1018.0
20260906074517 69 0.0 0.0 0.00 0.00 0.00 35 1018.4
20260906073017 66 0.0 0.0 0.00 0.00 0.00 40 1018.1
20260906071517 67 0.0 0.0 0.00 0.00 0.00 42 1018.0
20260906070037 67 0.0 0.0 0.00 0.00 0.00 41 1018.9
20260906064517 68 0.0 0.0 0.00 0.00 0.00 40 1018.5
20260906063017 70 0.0 0.0 0.00 0.00 0.00 36 1018.4
20260906061518 70 0.0 0.0 0.00 0.00 0.00 35 1018.3
20260906060017 71 0.0 0.0 0.00 0.00 0.00 34 1018.6
20260906054517 69 0.0 0.0 0.00 0.00 0.00 37 1018.7
20260906053017 68 0.0 0.0 0.00 0.00 0.00 38 1018.3
20260906051537 69 0.0 0.0 0.00 0.00 0.00 39 1018.5
20260906050017 70 0.0 0.0 0.00 0.00 0.00 36 1017.9
20260906044517 71 0.0 0.0 0.00 0.00 0.00 34 1018.3
20260906043017 70 0.0 0.0 0.00 0.00 0.00 35 1017.4
20260906041517 69 0.0 0.0 0.00 0.00 0.00 38 1018.0
20260906040017 71 0.0 0.0 0.00 0.00 0.00 37 1018.3
20260906034517 72 0.0 0.0 0.00 0.00 0.00 35 1018.7
20260906033017 72 0.0 0.0 0.00 0.00 0.00 34 1018.0
20260906031517 72 0.0 0.0 0.00 0.00 0.00 35 1017.9
20260906030016 72 0.0 0.0 0.00 0.00 0.00 37 1017.9
20260906024517 72 0.0 0.0 0.00 0.00 0.00 37 1017.6
20260906023016 73 0.0 0.0 0.00 0.00 0.00 37 1016.7
20260906021516 74 0.0 0.0 0.00 0.00 0.00 36 1016.6
20260906020017 75 0.0 0.0 0.00 0.00 0.00 33 1016.5
20260906014516 77 0.0 0.0 0.00 0.00 0.00 31 1016.8
20260906013016 78 0.0 0.0 0.00 0.00 0.00 30 1015.9
20260906011516 79 0.0 0.0 0.00 0.00 0.00 28 1015.5
20260906010016 81 0.0 0.0 0.00 0.00 0.00 28 1017.1
20260906004516 82 0.0 0.0 0.00 0.00 0.00 27 1017.0
20260906003016 84 0.0 0.0 0.00 0.00 0.00 26 1017.0
20260906001516 84 0.0 0.0 0.00 0.00 0.00 25 1017.4
20260906000016 84 0.0 0.0 0.00 0.00 0.00 25 1016.6
20260905234536 83 0.0 0.0 0.00 0.00 0.00 25 1016.5